Location: Poughquag
(41.6090°N, 73.6820°W)
Time: 12:11:44
(UTC-04:00)

ITUPSAT 1 - Visible Passes

Search period start: 19 June 2024 00:00
Search period end: 29 June 2024 00:00
Orbit: 695 x 705 km, 98.5° (Epoch: 19 June)

Date Brightness Start Highest point End Pass type
(mag) Time Alt. Az. Time Alt. Az. Time Alt. Az.
19 Jun ? 00:43:50 10° NW 00:45:46 12° WNW 00:47:43 10° W visible
19 Jun ? 22:09:14 10° NE 22:12:57 22° E 22:14:05 20° ESE visible
19 Jun ? 23:46:17 10° N 23:50:43 39° WNW 23:52:56 25° WSW visible
20 Jun ? 22:50:30 10° NNE 22:55:14 58° E 22:56:40 40° SSE visible
21 Jun ? 00:29:27 10° NNW 00:32:25 17° WNW 00:35:22 10° W visible
21 Jun ? 21:56:19 10° NE 21:59:17 16° E 22:00:24 15° ESE visible
21 Jun ? 23:32:35 10° N 23:37:15 54° WNW 23:39:13 32° SW visible
22 Jun ? 22:37:06 10° NNE 22:41:38 41° E 22:42:57 34° SE visible
23 Jun ? 00:15:23 10° NNW 00:19:01 22° WNW 00:21:47 14° WSW visible
23 Jun ? 21:43:57 10° ENE 21:45:33 12° E 21:46:40 11° ESE visible
23 Jun ? 23:18:57 10° N 23:23:44 74° WNW 23:25:30 39° SSW visible
24 Jun ? 22:23:47 10° NE 22:28:00 30° E 22:29:12 27° ESE visible
25 Jun ? 00:01:29 10° N 00:05:35 29° WNW 00:08:03 19° WSW visible
25 Jun ? 23:05:23 10° NNE 23:10:11 81° ESE 23:11:45 43° S visible
26 Jun ? 00:45:15 10° NW 00:47:10 12° WNW 00:49:03 10° W visible
26 Jun ? 22:10:36 10° NE 22:14:20 22° E 22:15:28 21° ESE visible
26 Jun ? 23:47:40 10° N 23:52:06 39° WNW 23:54:18 25° WSW visible
27 Jun ? 22:51:52 10° NNE 22:56:36 58° E 22:58:00 41° SSE visible
28 Jun ? 00:30:50 10° NNW 00:33:46 16° WNW 00:36:43 10° W visible
28 Jun ? 21:57:38 10° NE 22:00:38 16° E 22:01:42 15° ESE visible
28 Jun ? 23:33:56 10° N 23:38:36 53° WNW 23:40:32 32° SW visible
